Theta_e
321 322 323 323 323 324 324 324 325 325 325 323 323 322 321 321 322 322 322 320 320 322 323 321 321 323 320 321 323 323 329 326 321 327 328 331 334 330 332 338 337 339 341
321 321 322 323 324 325 324 325 325 324 325 324 323 322 320 319 321 319 318 319 319 319 320 321 319 318 321 322 319 322 322 325 324 322 327 328 330 332 330 331 330 333 335
320 319 321 322 324 324 325 326 326 325 325 324 323 322 320 320 319 318 318 318 319 319 320 320 320 320 319 318 319 319 319 320 322 321 322 324 326 329 329 332 331 336 331
321 319 319 320 320 320 322 325 325 324 323 323 323 321 321 319 318 317 316 317 318 319 320 319 320 319 318 318 316 318 320 320 320 318 321 322 323 329 326 324 323 325 325
323 321 321 320 317 316 318 317 314 316 315 318 319 319 319 318 314 314 315 316 318 319 319 319 320 318 313 312 314 317 319 318 317 316 315 317 321 321 319 319 319 320 323
320 317 316 316 311 310 310 309 310 310 314 313 316 316 316 315 303 303 307 315 317 316 316 319 320 318 315 313 312 312 312 316 315 315 314 315 317 316 316 315 315 314 312
318 317 316 314 313 314 312 310 310 310 311 311 313 314 314 315 301 300 303 313 315 315 315 315 314 314 316 315 312 312 314 311 310 314 315 314 315 316 317 315 315 314 313
315 313 311 311 309 311 312 310 313 313 313 313 313 313 313 309 300 299 301 312 313 314 314 314 314 313 310 308 309 312 314 316 317 315 317 317 317 316 315 314 314 315 315
311 312 311 311 310 310 311 311 312 312 312 312 311 311 311 311 300 298 302 310 309 311 312 312 312 311 299 298 307 308 310 312 311 307 306 304 302 301 304 312 309 309 308
311 310 310 310 309 309 310 310 311 311 310 309 309 309 309 310 298 298 301 306 306 305 309 311 302 304 297 297 305 307 306 308 311 312 313 312 311 314 304 316 315 310 310
309 309 309 309 309 309 309 310 309 308 308 307 306 307 307 306 306 298 297 303 302 302 304 306 307 298 296 296 296 306 302 304 307 309 310 310 311 313 314 316 318 315 312
310 309 308 309 308 307 309 308 307 307 305 304 304 304 304 307 301 300 297 297 300 304 304 305 306 296 295 295 299 297 297 300 307 307 307 308 308 308 310 314 316 318 319
308 308 308 308 307 307 307 307 304 306 304 302 301 300 300 301 303 299 297 297 299 303 305 301 297 296 296 299 298 298 298 303 302 302 302 303 305 308 310 312 312 316 319
307 307 307 306 305 307 306 305 304 303 302 300 299 297 298 300 300 300 302 303 301 303 303 305 301 298 297 300 301 302 303 304 303 302 301 303 304 304 303 305 305 308 309
307 306 305 304 305 303 303 304 302 303 299 299 299 299 298 297 297 295 294 300 302 300 299 303 302 300 300 300 301 300 300 300 300 300 301 301 300 302 301 305 305 306 305
304 303 303 303 303 302 302 301 295 295 295 294 292 294 300 295 293 292 292 292 292 293 301 301 299 299 297 299 298 297 298 298 299 300 300 299 300 299 299 300 301 302 302
304 308 304 302 305 304 303 301 299 298 296 294 293 293 293 292 291 291 292 291 292 294 300 300 298 298 297 296 296 296 296 298 300 301 301 300 299 300 299 299 299 300 299
307 296 304 304 305 305 304 302 301 300 298 298 296 296 293 292 292 292 292 294 300 300 301 299 299 297 296 295 296 296 297 298 298 299 300 300 297 298 298 298 297 296 297
305 304 304 304 304 302 303 301 302 301 300 300 300 297 295 293 293 293 293 302 301 300 299 298 298 296 295 295 296 297 298 298 298 299 300 300 300 299 299 297 297 291 293
307 300 298 304 304 302 302 302 302 301 300 299 299 298 297 297 298 299 300 300 300 299 299 298 297 296 295 294 295 296 297 297 298 298 299 299 300 299 299 299 299 298 298
305 306 293 304 302 301 301 300 302 301 300 299 299 296 284 296 297 298 298 299 299 299 298 298 297 297 297 296 295 296 296 296 297 297 298 298 298 298 299 298 299 298 296
304 304 304 304 303 301 300 301 301 301 300 298 298 297 288 297 297 297 297 297 297 298 298 298 297 297 296 295 295 295 295 295 296 296 297 297 298 298 298 298 298 298 298
304 303 303 304 304 296 301 301 302 301 299 299 299 298 297 297 297 296 297 297 297 297 297 297 297 296 296 296 296 295 294 295 294 295 296 296 297 297 297 298 297 295 294
304 303 302 302 303 300 302 301 302 294 298 299 299 299 299 298 298 297 298 298 298 298 298 297 297 296 296 296 295 295 294 292 292 295 294 295 296 296 297 297 297 295 294
306 303 302 303 301 301 302 300 301 300 299 299 299 300 300 300 299 300 300 300 299 298 297 298 298 297 297 296 295 292 287 284 288 285 293 294 296 297 297 296 296 295 295
305 303 302 302 302 301 301 300 300 301 299 299 300 300 300 299 299 300 300 300 299 298 298 299 298 298 297 297 294 286 284 284 286 283 288 295 297 296 296 295 294 295 295
Wind_Speed
6 5 4 4 3 3 4 5 6 6 6 7 7 8 9 10 11 11 11 10 10 9 8 9 10 10 8 9 6 8 5 3 4 3 2 3 3 3 7 7 5 5 6
7 6 6 5 5 6 6 7 8 9 9 9 8 8 9 10 11 13 13 12 11 11 9 9 9 8 10 10 9 10 9 10 8 11 8 6 4 2 2 4 4 4 5
8 8 7 7 6 6 7 8 9 10 10 10 9 8 9 10 11 12 12 14 13 12 10 10 9 8 8 9 10 10 10 9 10 9 10 8 6 4 5 5 4 4 4
6 7 5 5 8 8 9 10 9 8 9 9 10 10 11 11 13 11 14 13 13 12 11 10 9 9 9 10 10 10 10 10 10 10 7 7 7 3 6 7 7 9 7
3 3 4 4 6 7 8 9 9 9 11 11 12 12 12 12 9 11 12 13 13 12 11 10 7 6 1 5 8 10 11 10 10 10 8 6 4 5 8 8 9 10 11
5 5 6 7 5 4 3 5 4 5 10 8 13 14 12 10 10 12 11 13 11 11 11 12 14 11 3 4 4 7 7 9 11 9 9 11 8 9 7 9 10 9 11
4 7 5 5 3 3 5 4 6 6 8 8 12 13 11 10 9 10 13 13 11 10 10 11 11 9 8 10 12 16 11 9 6 7 9 9 10 10 10 11 12 12 12
7 7 6 5 5 6 8 7 10 10 10 10 10 10 9 4 8 9 15 14 11 11 11 10 9 11 10 12 14 13 13 12 10 9 10 10 10 11 10 11 13 13 13
5 5 5 5 7 9 9 10 9 9 9 9 7 7 9 8 7 7 13 12 11 11 11 11 8 10 13 12 13 14 14 13 6 10 12 11 12 12 11 9 10 11 11
4 6 8 7 8 9 10 10 10 10 11 8 7 8 7 10 9 7 11 10 10 10 12 7 14 10 9 12 11 13 14 14 14 14 15 13 14 12 16 11 10 10 11
6 3 5 6 7 7 9 10 9 9 8 8 10 8 7 6 5 8 9 9 8 10 10 8 4 12 10 11 9 9 11 14 16 15 13 12 12 11 9 5 9 9 11
3 4 6 7 7 8 9 9 9 7 8 9 8 8 6 9 3 3 4 5 7 10 10 8 9 13 11 9 8 9 11 10 9 9 9 8 7 8 8 10 13 14 13
5 5 7 8 8 9 9 8 8 7 7 6 6 7 8 8 8 3 9 8 10 9 7 8 11 11 11 7 5 10 11 5 6 6 7 7 9 9 11 9 10 12 14
6 6 7 8 7 7 6 6 5 6 9 9 7 6 7 8 7 8 11 10 7 7 8 6 8 10 9 8 7 5 6 6 8 6 6 8 7 6 6 7 9 9 10
4 4 5 3 4 5 4 5 7 9 7 9 9 9 8 8 8 9 10 7 8 7 10 4 5 7 8 8 7 7 6 6 5 6 7 6 7 7 7 8 7 8 9
3 4 3 4 4 3 5 4 4 4 5 1 3 6 7 7 8 9 11 7 9 9 6 6 7 7 9 10 9 9 8 8 8 7 5 7 7 7 6 8 8 8 7
3 1 1 3 4 5 4 5 7 6 7 5 2 3 4 8 9 8 8 9 12 8 4 7 6 8 9 10 10 10 9 9 10 8 9 5 8 8 7 7 7 7 8
2 2 5 4 4 3 4 5 5 6 5 2 7 3 2 5 7 7 10 8 3 3 5 7 9 9 9 10 9 9 10 9 9 9 9 7 5 10 6 5 5 6 8
2 2 6 5 3 4 5 3 5 5 5 6 6 4 3 9 9 11 10 5 5 6 5 6 8 9 9 9 9 9 10 9 8 9 8 9 7 7 7 9 10 8 7
1 3 5 6 3 5 5 4 4 5 5 6 6 7 9 10 6 6 7 6 5 5 7 7 7 7 7 8 9 9 9 9 9 9 9 9 9 9 9 9 7 7 6
4 2 2 7 4 5 5 5 4 4 5 5 5 7 3 8 7 6 7 7 7 8 8 8 8 8 7 8 8 8 9 9 10 10 10 10 10 9 10 9 10 9 8
4 3 3 3 3 4 6 4 4 4 5 5 5 4 5 5 5 6 6 6 7 6 6 7 6 7 7 8 8 8 9 10 10 10 11 11 10 10 10 10 10 10 9
4 4 3 2 2 2 3 4 3 4 4 4 4 5 5 5 5 5 5 5 5 5 5 6 6 6 7 7 7 8 9 9 10 11 11 12 10 10 11 11 9 9 9
4 4 3 3 2 6 3 4 3 2 4 4 4 4 4 4 4 4 4 4 4 5 5 5 5 8 8 8 7 8 8 10 10 11 14 12 11 11 12 12 12 11 9
2 5 4 3 4 4 2 3 3 4 4 3 3 3 3 3 3 3 3 4 4 5 6 6 6 9 10 11 10 14 12 9 10 10 11 13 12 14 12 12 12 10 12
4 5 5 4 3 4 4 4 4 3 4 3 3 3 3 4 3 3 3 4 5 5 6 6 7 10 10 8 12 11 9 8 11 11 11 11 10 10 10 13 13 10 12
Wind_Direction
205 204 217 237 246 267 287 300 306 308 308 318 329 337 344 346 352 342 336 331 327 323 319 326 324 330 331 311 304 290 275 245 288 284 253 319 298 345 343 339 351 351 314
211 223 237 249 265 277 285 295 300 296 298 299 304 315 328 336 339 337 331 331 325 319 315 309 315 332 325 324 331 316 310 296 295 287 291 255 269 293 315 312 326 332 333
210 221 225 245 260 280 290 295 297 299 294 294 296 304 319 326 327 325 336 329 322 316 309 307 307 316 321 336 324 317 314 314 305 297 303 302 301 274 310 248 281 249 275
237 241 278 308 320 322 320 317 320 318 303 295 306 313 317 321 319 344 335 325 316 311 306 299 296 303 341 332 322 316 318 323 293 282 296 308 324 334 291 299 310 309 321
300 318 349 1 32 14 44 4 13 3 342 334 314 311 319 319 8 359 335 318 311 316 308 303 299 3 307 317 323 342 323 319 322 316 305 304 327 350 328 339 307 317 305
24 41 81 82 69 56 17 329 330 339 306 312 321 311 316 312 29 5 334 316 321 326 327 336 333 314 284 254 260 290 297 325 321 327 322 347 4 331 339 337 314 323 310
107 103 95 71 39 4 326 318 308 316 305 312 296 298 310 311 47 355 338 313 315 332 331 334 330 351 342 341 338 306 266 223 243 306 315 326 320 337 331 315 322 315 301
49 58 38 10 342 318 306 294 322 313 309 304 306 312 319 46 60 3 333 301 314 314 315 311 315 322 37 352 329 313 310 311 307 309 319 306 310 324 303 300 299 284 274
66 12 349 326 321 324 330 328 319 317 312 311 326 329 333 334 68 23 326 312 325 313 308 311 324 313 27 3 317 309 302 296 278 248 258 265 263 256 256 291 287 305 299
37 0 360 340 328 324 331 321 319 313 304 329 347 326 306 295 84 38 354 323 337 327 307 338 69 34 5 349 323 313 300 301 310 311 305 287 262 260 221 238 271 281 290
15 340 341 337 325 319 319 314 320 319 338 329 331 332 16 6 33 49 8 334 335 315 315 320 347 32 353 314 316 331 328 317 295 280 273 270 272 274 281 327 319 298 289
314 318 335 336 325 330 325 317 328 353 340 332 313 322 337 335 270 143 294 281 314 307 319 322 330 352 312 298 299 332 307 303 324 324 314 315 335 339 340 345 336 306 285
328 337 333 329 336 323 323 346 320 349 327 327 318 325 350 355 355 164 257 321 292 303 338 333 291 283 280 289 354 303 288 333 317 322 331 331 331 335 330 326 318 317 304
329 334 326 328 342 343 321 350 348 348 349 344 338 329 327 322 339 339 338 326 326 310 338 355 320 277 255 264 262 280 315 334 335 324 335 329 315 312 309 318 316 317 310
305 326 312 346 20 358 12 18 3 33 5 335 339 330 334 324 349 338 321 310 335 350 313 332 327 336 340 335 352 345 333 341 333 323 326 321 325 337 336 330 307 318 314
342 305 42 316 10 353 344 93 142 118 119 59 326 329 346 341 336 313 309 317 294 296 306 336 357 351 340 345 346 344 344 345 351 324 336 334 333 331 333 320 329 320 316
271 337 10 277 309 352 7 352 349 173 150 175 163 264 286 295 299 303 305 309 288 303 345 336 356 353 350 349 346 346 345 350 326 338 333 24 325 324 317 328 320 321 318
100 168 293 323 330 345 337 349 337 355 8 97 211 273 124 336 313 304 302 314 319 50 16 352 356 359 351 348 348 346 346 339 350 333 333 349 348 326 328 326 323 323 322
305 349 343 317 325 320 296 321 307 345 345 350 358 162 45 327 266 266 279 10 15 31 5 353 8 354 355 349 348 344 337 348 332 335 339 339 343 309 344 346 337 332 299
181 126 273 290 333 348 338 316 318 335 340 355 355 22 360 322 360 360 39 24 7 7 360 3 1 5 360 349 342 340 337 343 346 343 342 337 339 330 327 320 312 305 306
323 328 19 259 12 355 348 341 335 321 346 354 354 64 339 304 357 6 3 11 7 360 5 2 355 2 351 348 351 336 344 344 351 344 342 338 334 329 329 316 312 322 306
292 316 300 313 318 357 356 337 328 331 350 356 359 87 225 314 3 3 11 9 0 355 357 351 353 354 351 342 342 344 336 342 348 342 336 332 329 326 334 321 314 318 317
278 291 286 293 324 260 290 357 355 352 355 353 354 2 0 9 3 15 5 9 356 355 353 347 354 348 345 343 341 341 332 346 342 329 329 327 325 335 317 321 327 333 317
266 279 296 317 335 313 347 342 358 197 305 347 357 350 358 357 356 12 349 1 353 350 351 345 347 345 339 344 344 343 350 352 325 313 334 315 319 318 323 329 327 340 310
276 275 275 306 317 314 313 300 329 332 341 333 333 327 340 332 329 345 339 350 349 341 350 342 346 342 345 341 352 351 351 320 313 317 311 313 303 316 326 331 338 324 311
287 265 268 275 286 300 297 308 308 309 307 302 295 302 306 303 304 306 319 333 343 341 341 346 348 345 342 342 6 334 305 316 321 317 310 291 312 322 331 331 327 313 319